Location: *
(46.4000°N, 12.6667°E)
Time: 23:29:00
(UTC+00:00)

ISS - Pass Details

Date: 08 March 2021
Orbit: 418 x 422 km, 51.6° (Epoch: 12 April)

Event Time Altitude Azimuth Distance (km) Brightness Sun altitude
Exits shadow 04:43:24 12° 294° (WNW) 1,388 -1.7 -9.8°
Maximum altitude 04:46:28 71° 210° (SSW) 446 -3.8 -9.3°
Drops below altitude 10° 04:49:49 10° 126° (SE) 1,494 -0.1 -8.7°
Sets 04:51:54 0° 125° (SE) 2,355 1.0 -8.3°
